| time (UTC) | temp F | wind direction | speed MPH | gust MPH | rain 1hr in | rain 24hr in | rain mn in | humidity % | barometer mb |
| 20260508081238 | 63 | 216 | 0.0 | 0.0 | 0.00 | 0.00 | 0.00 | 77 | 1016.3 |
| 20260508080737 | 63 | 222 | 0.0 | 0.0 | 0.00 | 0.00 | 0.00 | 77 | 1016.3 |
| 20260508080239 | 63 | 234 | 3.0 | 0.0 | 0.00 | 0.00 | 0.00 | 76 | 1016.3 |
| 20260508075740 | 63 | 265 | 0.0 | 0.0 | 0.00 | 0.00 | 0.00 | 76 | 1016.3 |
| 20260508075237 | 63 | 181 | 0.0 | 0.0 | 0.00 | 0.00 | 0.00 | 76 | 1016.3 |
| 20260508074738 | 64 | 207 | 0.0 | 0.0 | 0.00 | 0.00 | 0.00 | 75 | 1016.6 |
| 20260508074236 | 64 | 195 | 1.0 | 0.0 | 0.00 | 0.00 | 0.00 | 74 | 1016.9 |
| 20260508073737 | 64 | 247 | 1.0 | 0.0 | 0.00 | 0.00 | 0.00 | 74 | 1016.9 |
| 20260508073237 | 64 | 219 | 3.0 | 0.0 | 0.00 | 0.00 | 0.00 | 74 | 1016.9 |
| 20260508072735 | 64 | 243 | 2.0 | 0.0 | 0.00 | 0.00 | 0.00 | 73 | 1016.9 |
| 20260508072237 | 64 | 219 | 1.0 | 0.0 | 0.00 | 0.00 | 0.00 | 74 | 1016.9 |
| 20260508071737 | 64 | 240 | 0.0 | 0.0 | 0.00 | 0.00 | 0.00 | 74 | 1016.9 |
| 20260508071237 | 64 | 206 | 2.0 | 0.0 | 0.00 | 0.00 | 0.00 | 74 | 1016.9 |
| 20260508070736 | 64 | 221 | 3.0 | 0.0 | 0.00 | 0.00 | 0.00 | 73 | 1016.9 |
| 20260508070238 | 64 | 232 | 2.0 | 0.0 | 0.00 | 0.00 | 0.00 | 73 | 1016.9 |
| 20260508065736 | 64 | 216 | 2.0 | 0.0 | 0.00 | 0.00 | 0.00 | 74 | 1016.9 |
| 20260508065236 | 64 | 214 | 1.0 | 0.0 | 0.00 | 0.00 | 0.00 | 74 | 1016.9 |
| 20260508064735 | 64 | 214 | 2.0 | 0.0 | 0.00 | 0.00 | 0.00 | 74 | 1016.9 |
| 20260508064233 | 64 | 258 | 2.0 | 0.0 | 0.00 | 0.00 | 0.00 | 74 | 1017.3 |
| 20260508063735 | 64 | 208 | 2.0 | 0.0 | 0.00 | 0.00 | 0.00 | 74 | 1017.3 |
| 20260508063233 | 64 | 291 | 3.0 | 0.0 | 0.00 | 0.00 | 0.00 | 74 | 1016.9 |
| 20260508062734 | 64 | 235 | 2.0 | 0.0 | 0.00 | 0.00 | 0.00 | 74 | 1016.6 |
| 20260508062233 | 64 | 229 | 2.0 | 0.0 | 0.00 | 0.00 | 0.00 | 74 | 1016.3 |
| 20260508061736 | 64 | 234 | 3.0 | 0.0 | 0.00 | 0.00 | 0.00 | 74 | 1016.3 |
| 20260508061234 | 64 | 217 | 3.0 | 0.0 | 0.00 | 0.00 | 0.00 | 74 | 1015.9 |
| 20260508060735 | 64 | 276 | 4.0 | 0.0 | 0.00 | 0.00 | 0.00 | 74 | 1015.9 |
| 20260508060236 | 64 | 208 | 4.0 | 0.0 | 0.00 | 0.00 | 0.00 | 74 | 1016.3 |
| 20260508055737 | 64 | 222 | 4.0 | 0.0 | 0.00 | 0.00 | 0.00 | 73 | 1017.3 |
| 20260508055534 | 64 | 284 | 4.0 | 0.0 | 0.00 | 0.00 | 0.00 | 73 | 1017.3 |
| 20260508054731 | 64 | 287 | 4.0 | 0.0 | 0.00 | 0.00 | 0.00 | 73 | 1016.9 |
| 20260508054232 | 65 | 212 | 3.0 | 0.0 | 0.00 | 0.00 | 0.00 | 72 | 1017.3 |
| 20260508053732 | 65 | 221 | 3.0 | 0.0 | 0.00 | 0.00 | 0.00 | 72 | 1017.6 |
| 20260508053232 | 65 | 227 | 0.0 | 0.0 | 0.00 | 0.00 | 0.00 | 72 | 1017.6 |
| 20260508052732 | 65 | 182 | 2.0 | 0.0 | 0.00 | 0.00 | 0.00 | 72 | 1017.6 |
| 20260508052231 | 65 | 207 | 1.0 | 0.0 | 0.00 | 0.00 | 0.00 | 73 | 1017.6 |
| 20260508051730 | 65 | 206 | 2.0 | 0.0 | 0.00 | 0.00 | 0.00 | 72 | 1017.6 |
| 20260508051232 | 65 | 282 | 3.0 | 0.0 | 0.00 | 0.00 | 0.00 | 72 | 1017.6 |
| 20260508050731 | 64 | 223 | 2.0 | 0.0 | 0.00 | 0.00 | 0.00 | 72 | 1017.3 |
| 20260508050233 | 65 | 186 | 3.0 | 0.0 | 0.00 | 0.00 | 0.00 | 72 | 1017.3 |
| 20260508045731 | 64 | 171 | 3.0 | 0.0 | 0.00 | 0.00 | 0.00 | 71 | 1017.3 |
| 20260508045231 | 64 | 217 | 4.0 | 0.0 | 0.00 | 0.00 | 0.00 | 71 | 1017.6 |
| 20260508044732 | 64 | 229 | 5.0 | 0.0 | 0.00 | 0.00 | 0.00 | 71 | 1017.6 |
| 20260508044231 | 64 | 252 | 4.0 | 0.0 | 0.00 | 0.00 | 0.00 | 72 | 1017.6 |
| 20260508043730 | 64 | 240 | 5.0 | 0.0 | 0.00 | 0.00 | 0.00 | 72 | 1017.9 |
| 20260508043231 | 64 | 301 | 4.0 | 0.0 | 0.00 | 0.00 | 0.00 | 72 | 1016.6 |
| 20260508042729 | 64 | 261 | 3.0 | 0.0 | 0.00 | 0.00 | 0.00 | 72 | 1015.9 |
| 20260508042229 | 64 | 245 | 3.0 | 0.0 | 0.00 | 0.00 | 0.00 | 72 | 1015.9 |
| 20260508041729 | 64 | 122 | 3.0 | 0.0 | 0.00 | 0.00 | 0.00 | 72 | 1015.9 |
| 20260508041229 | 64 | 169 | 2.0 | 0.0 | 0.00 | 0.00 | 0.00 | 72 | 1015.9 |
| 20260508040732 | 64 | 239 | 4.0 | 0.0 | 0.00 | 0.00 | 0.00 | 72 | 1015.6 |
| 20260508040230 | 64 | 72 | 4.0 | 0.0 | 0.00 | 0.00 | 0.00 | 71 | 1015.9 |
| 20260508035728 | 65 | 202 | 3.0 | 0.0 | 0.00 | 0.00 | 0.00 | 71 | 1016.3 |
| 20260508035228 | 65 | 244 | 2.0 | 0.0 | 0.00 | 0.00 | 0.00 | 70 | 1016.6 |
| 20260508034728 | 65 | 205 | 3.0 | 0.0 | 0.00 | 0.00 | 0.00 | 70 | 1016.6 |
| 20260508034229 | 65 | 99 | 3.0 | 0.0 | 0.00 | 0.00 | 0.00 | 70 | 1016.6 |
| 20260508033727 | 65 | 222 | 3.0 | 0.0 | 0.00 | 0.00 | 0.00 | 70 | 1016.9 |
| 20260508033228 | 65 | 261 | 4.0 | 0.0 | 0.00 | 0.00 | 0.00 | 69 | 1016.9 |
| 20260508032727 | 65 | 280 | 4.0 | 0.0 | 0.00 | 0.00 | 0.00 | 69 | 1016.9 |
| 20260508032229 | 65 | 189 | 3.0 | 0.0 | 0.00 | 0.00 | 0.00 | 69 | 1017.3 |
| 20260508031728 | 65 | 246 | 3.0 | 0.0 | 0.00 | 0.00 | 0.00 | 69 | 1017.3 |
| 20260508031229 | 65 | 146 | 3.0 | 0.0 | 0.00 | 0.00 | 0.00 | 69 | 1017.3 |
| 20260508030728 | 65 | 239 | 3.0 | 0.0 | 0.00 | 0.00 | 0.00 | 68 | 1017.6 |
| 20260508030228 | 65 | 230 | 4.0 | 0.0 | 0.00 | 0.00 | 0.00 | 68 | 1017.6 |
| 20260508025729 | 65 | 231 | 6.0 | 0.0 | 0.00 | 0.00 | 0.00 | 68 | 1017.6 |
| 20260508025226 | 65 | 281 | 4.0 | 0.0 | 0.00 | 0.00 | 0.00 | 69 | 1017.6 |
| 20260508024727 | 65 | 200 | 3.0 | 0.0 | 0.00 | 0.00 | 0.00 | 70 | 1017.3 |
| 20260508024226 | 65 | 261 | 2.0 | 0.0 | 0.00 | 0.00 | 0.00 | 71 | 1017.3 |
| 20260508023726 | 64 | 243 | 2.0 | 0.0 | 0.00 | 0.00 | 0.00 | 74 | 1017.3 |
| 20260508023225 | 64 | 219 | 2.0 | 0.0 | 0.00 | 0.00 | 0.00 | 75 | 1017.3 |
| 20260508022726 | 64 | 227 | 1.0 | 0.0 | 0.00 | 0.00 | 0.00 | 75 | 1017.3 |
| 20260508022226 | 63 | 228 | 0.0 | 0.0 | 0.00 | 0.00 | 0.00 | 75 | 1016.9 |
| 20260508021726 | 63 | 203 | 0.0 | 0.0 | 0.00 | 0.00 | 0.00 | 76 | 1016.9 |
| 20260508021227 | 63 | 232 | 1.0 | 0.0 | 0.00 | 0.00 | 0.00 | 76 | 1017.3 |
| 20260508020727 | 63 | 205 | 1.0 | 0.0 | 0.00 | 0.00 | 0.00 | 76 | 1016.9 |
| 20260508020225 | 63 | 187 | 1.0 | 0.0 | 0.00 | 0.00 | 0.00 | 75 | 1016.6 |
| 20260508015725 | 64 | 203 | 2.0 | 0.0 | 0.00 | 0.00 | 0.00 | 74 | 1016.3 |
| 20260508015227 | 64 | 155 | 2.0 | 0.0 | 0.00 | 0.00 | 0.00 | 74 | 1016.3 |
| 20260508014725 | 65 | 174 | 2.0 | 0.0 | 0.00 | 0.00 | 0.00 | 72 | 1016.6 |
| 20260508014226 | 65 | 190 | 2.0 | 0.0 | 0.00 | 0.00 | 0.00 | 70 | 1016.3 |
| 20260508013726 | 65 | 203 | 0.0 | 0.0 | 0.00 | 0.00 | 0.00 | 69 | 1016.3 |
| 20260508013224 | 65 | 203 | 2.0 | 0.0 | 0.00 | 0.00 | 0.00 | 68 | 1015.9 |
| 20260508012724 | 66 | 178 | 2.0 | 0.0 | 0.00 | 0.00 | 0.00 | 68 | 1015.9 |
| 20260508012223 | 66 | 264 | 3.0 | 0.0 | 0.00 | 0.00 | 0.00 | 65 | 1015.9 |
| 20260508011724 | 66 | 220 | 3.0 | 0.0 | 0.00 | 0.00 | 0.00 | 65 | 1015.9 |
| 20260508011226 | 66 | 250 | 3.0 | 0.0 | 0.00 | 0.00 | 0.00 | 64 | 1015.9 |
| 20260508010722 | 66 | 281 | 4.0 | 0.0 | 0.00 | 0.00 | 0.00 | 64 | 1015.9 |
| 20260508010225 | 66 | 287 | 6.0 | 0.0 | 0.00 | 0.00 | 0.00 | 65 | 1015.6 |
| 20260508005722 | 66 | 269 | 4.0 | 0.0 | 0.00 | 0.00 | 0.00 | 66 | 1015.2 |
| 20260508005222 | 66 | 266 | 5.0 | 0.0 | 0.00 | 0.00 | 0.00 | 66 | 1014.9 |
| 20260508004724 | 66 | 229 | 3.0 | 0.0 | 0.00 | 0.00 | 0.00 | 67 | 1014.6 |
| 20260508004221 | 66 | 247 | 5.0 | 0.0 | 0.00 | 0.00 | 0.00 | 67 | 1014.2 |
| 20260508003720 | 67 | 189 | 5.0 | 0.0 | 0.00 | 0.00 | 0.00 | 66 | 1013.9 |
| 20260508003222 | 67 | 226 | 6.0 | 0.0 | 0.00 | 0.00 | 0.00 | 66 | 1014.2 |
| 20260508002721 | 67 | 131 | 8.0 | 0.0 | 0.00 | 0.00 | 0.00 | 65 | 1014.2 |
| 20260508002220 | 67 | 105 | 5.0 | 0.0 | 0.00 | 0.00 | 0.00 | 65 | 1014.9 |
| 20260508001720 | 67 | 118 | 4.0 | 0.0 | 0.00 | 0.00 | 0.00 | 65 | 1015.2 |
| 20260508001221 | 67 | 79 | 6.0 | 0.0 | 0.00 | 0.00 | 0.00 | 64 | 1015.6 |
| 20260508000720 | 67 | 163 | 6.0 | 0.0 | 0.00 | 0.00 | 0.00 | 65 | 1015.9 |
| 20260508000222 | 68 | 69 | 6.0 | 0.0 | 0.00 | 0.00 | 0.00 | 64 | 1015.9 |
| 20260507235722 | 68 | 204 | 4.0 | 0.0 | 0.00 | 0.00 | 0.00 | 64 | 1016.3 |
| 20260507235220 | 68 | 147 | 5.0 | 0.0 | 0.00 | 0.00 | 0.00 | 63 | 1016.3 |
| 20260507234721 | 68 | 102 | 5.0 | 0.0 | 0.00 | 0.00 | 0.00 | 63 | 1016.6 |
| 20260507234222 | 68 | 173 | 4.0 | 0.0 | 0.00 | 0.00 | 0.00 | 64 | 1016.9 |
| 20260507233720 | 68 | 139 | 5.0 | 0.0 | 0.00 | 0.00 | 0.00 | 63 | 1016.9 |
| 20260507233219 | 68 | 141 | 5.0 | 0.0 | 0.00 | 0.00 | 0.00 | 62 | 1016.9 |
| 20260507232722 | 68 | 254 | 5.0 | 0.0 | 0.00 | 0.00 | 0.00 | 62 | 1016.9 |
| 20260507232218 | 68 | 215 | 6.0 | 0.0 | 0.00 | 0.00 | 0.00 | 61 | 1016.9 |
| 20260507231720 | 69 | 301 | 5.0 | 0.0 | 0.00 | 0.00 | 0.00 | 63 | 1016.9 |
| 20260507231218 | 69 | 168 | 6.0 | 0.0 | 0.00 | 0.00 | 0.00 | 63 | 1016.9 |
| 20260507230717 | 69 | 249 | 7.0 | 0.0 | 0.00 | 0.00 | 0.00 | 63 | 1017.3 |
| 20260507230217 | 69 | 222 | 4.0 | 0.0 | 0.00 | 0.00 | 0.00 | 63 | 1017.3 |
| 20260507225718 | 69 | 98 | 5.0 | 0.0 | 0.00 | 0.00 | 0.00 | 64 | 1017.6 |
| 20260507225218 | 69 | 235 | 4.0 | 0.0 | 0.00 | 0.00 | 0.00 | 63 | 1017.3 |
| 20260507224716 | 69 | 247 | 4.0 | 0.0 | 0.00 | 0.00 | 0.00 | 63 | 1017.3 |
| 20260507224217 | 69 | 335 | 4.0 | 0.0 | 0.00 | 0.00 | 0.00 | 64 | 1017.3 |
| 20260507223717 | 70 | 237 | 4.0 | 0.0 | 0.00 | 0.00 | 0.00 | 63 | 1017.3 |
| 20260507223217 | 70 | 275 | 7.0 | 0.0 | 0.00 | 0.00 | 0.00 | 63 | 1017.6 |
| 20260507222717 | 70 | 92 | 7.0 | 0.0 | 0.00 | 0.00 | 0.00 | 63 | 1017.6 |
| 20260507222216 | 69 | 233 | 8.0 | 0.0 | 0.00 | 0.00 | 0.00 | 63 | 1017.6 |
| 20260507221717 | 70 | 260 | 6.0 | 0.0 | 0.00 | 0.00 | 0.00 | 64 | 1017.6 |
| 20260507221218 | 69 | 285 | 6.0 | 0.0 | 0.00 | 0.00 | 0.00 | 64 | 1017.3 |
| 20260507220715 | 69 | 169 | 7.0 | 0.0 | 0.00 | 0.00 | 0.00 | 65 | 1017.6 |
| 20260507220215 | 68 | 284 | 8.0 | 0.0 | 0.00 | 0.00 | 0.00 | 64 | 1017.3 |
| 20260507215717 | 68 | 95 | 8.0 | 0.0 | 0.00 | 0.00 | 0.00 | 64 | 1017.6 |
| 20260507215215 | 68 | 271 | 7.0 | 0.0 | 0.00 | 0.00 | 0.00 | 64 | 1017.6 |
| 20260507214715 | 68 | 275 | 6.0 | 0.0 | 0.00 | 0.00 | 0.00 | 64 | 1017.6 |
| 20260507214214 | 68 | 236 | 4.0 | 0.0 | 0.00 | 0.00 | 0.00 | 65 | 1017.9 |
| 20260507213717 | 68 | 243 | 4.0 | 0.0 | 0.00 | 0.00 | 0.00 | 66 | 1017.9 |
| 20260507213216 | 68 | 247 | 5.0 | 0.0 | 0.00 | 0.00 | 0.00 | 65 | 1017.9 |
| 20260507212714 | 68 | 297 | 8.0 | 0.0 | 0.00 | 0.00 | 0.00 | 65 | 1017.6 |
| 20260507212218 | 68 | 292 | 7.0 | 0.0 | 0.00 | 0.00 | 0.00 | 66 | 1017.6 |
| 20260507211715 | 68 | 254 | 7.0 | 0.0 | 0.00 | 0.00 | 0.00 | 66 | 1017.9 |
| 20260507211214 | 68 | 308 | 8.0 | 0.0 | 0.00 | 0.00 | 0.00 | 66 | 1018.3 |
| 20260507210716 | 68 | 352 | 9.0 | 0.0 | 0.00 | 0.00 | 0.00 | 66 | 1018.3 |
| 20260507210215 | 68 | 303 | 9.0 | 0.0 | 0.00 | 0.00 | 0.00 | 67 | 1018.3 |
| 20260507205713 | 68 | 346 | 7.0 | 0.0 | 0.00 | 0.00 | 0.00 | 66 | 1018.3 |
| 20260507205214 | 68 | 227 | 8.0 | 0.0 | 0.00 | 0.00 | 0.00 | 68 | 1018.3 |
| 20260507204714 | 68 | 219 | 6.0 | 0.0 | 0.00 | 0.00 | 0.00 | 68 | 1017.6 |
| 20260507204214 | 68 | 264 | 7.0 | 0.0 | 0.00 | 0.00 | 0.00 | 69 | 1017.3 |
| 20260507203711 | 68 | 249 | 9.0 | 0.0 | 0.00 | 0.00 | 0.00 | 70 | 1017.6 |
| 20260507203214 | 68 | 227 | 9.0 | 0.0 | 0.00 | 0.00 | 0.00 | 70 | 1017.6 |
| 20260507202713 | 68 | 236 | 8.0 | 0.0 | 0.00 | 0.00 | 0.00 | 71 | 1017.6 |
| 20260507202213 | 68 | 277 | 6.0 | 0.0 | 0.00 | 0.00 | 0.00 | 72 | 1017.6 |
| 20260507201711 | 67 | 277 | 6.0 | 0.0 | 0.00 | 0.00 | 0.00 | 72 | 1017.6 |
| 20260507201213 | 67 | 329 | 8.0 | 0.0 | 0.00 | 0.00 | 0.00 | 70 | 1017.6 |
| 20260507200711 | 68 | 273 | 8.0 | 0.0 | 0.00 | 0.00 | 0.00 | 71 | 1017.9 |
| 20260507200210 | 67 | 27 | 6.0 | 0.0 | 0.00 | 0.00 | 0.00 | 73 | 1017.9 |
| 20260507195713 | 66 | 111 | 7.0 | 0.0 | 0.00 | 0.00 | 0.00 | 75 | 1017.6 |
| 20260507195213 | 66 | 298 | 8.0 | 0.0 | 0.00 | 0.00 | 0.00 | 75 | 1017.9 |
| 20260507194710 | 66 | 247 | 7.0 | 0.0 | 0.00 | 0.00 | 0.00 | 76 | 1018.3 |
| 20260507194210 | 65 | 310 | 9.0 | 0.0 | 0.00 | 0.00 | 0.00 | 76 | 1017.9 |
| 20260507193710 | 65 | 296 | 7.0 | 0.0 | 0.00 | 0.00 | 0.00 | 77 | 1018.3 |
| 20260507193213 | 65 | 329 | 8.0 | 0.0 | 0.00 | 0.00 | 0.00 | 78 | 1018.3 |
| 20260507192713 | 65 | 317 | 7.0 | 0.0 | 0.00 | 0.00 | 0.00 | 77 | 1018.6 |
| 20260507192216 | 65 | 264 | 8.0 | 0.0 | 0.00 | 0.00 | 0.00 | 78 | 1019.0 |
| 20260507191710 | 64 | 290 | 7.0 | 0.0 | 0.00 | 0.00 | 0.00 | 78 | 1018.6 |
| 20260507191214 | 64 | 216 | 6.0 | 0.0 | 0.00 | 0.00 | 0.00 | 78 | 1018.6 |
| 20260507190710 | 64 | 270 | 6.0 | 0.0 | 0.00 | 0.00 | 0.00 | 78 | 1018.6 |
| 20260507190209 | 64 | 284 | 9.0 | 0.0 | 0.00 | 0.00 | 0.00 | 78 | 1018.3 |
| 20260507185711 | 64 | 273 | 7.0 | 0.0 | 0.00 | 0.00 | 0.00 | 79 | 1017.9 |
| 20260507185210 | 64 | 66 | 6.0 | 0.0 | 0.00 | 0.00 | 0.00 | 79 | 1017.9 |
| 20260507184712 | 63 | 298 | 5.0 | 0.0 | 0.00 | 0.00 | 0.00 | 80 | 1017.9 |
| 20260507184211 | 63 | 29 | 7.0 | 0.0 | 0.00 | 0.00 | 0.00 | 82 | 1018.3 |
| 20260507183710 | 63 | 312 | 4.0 | 0.0 | 0.00 | 0.00 | 0.00 | 82 | 1018.3 |
| 20260507183211 | 62 | 157 | 5.0 | 0.0 | 0.00 | 0.00 | 0.00 | 82 | 1019.0 |
| 20260507182714 | 62 | 233 | 5.0 | 0.0 | 0.00 | 0.00 | 0.00 | 82 | 1019.0 |
| 20260507182214 | 62 | 255 | 7.0 | 0.0 | 0.00 | 0.00 | 0.00 | 81 | 1019.3 |
| 20260507181713 | 62 | 57 | 6.0 | 0.0 | 0.00 | 0.00 | 0.00 | 81 | 1019.3 |
| 20260507181210 | 63 | 308 | 6.0 | 0.0 | 0.00 | 0.00 | 0.00 | 81 | 1019.3 |
| 20260507180712 | 63 | 267 | 6.0 | 0.0 | 0.00 | 0.00 | 0.00 | 81 | 1019.6 |
| 20260507180213 | 63 | 274 | 6.0 | 0.0 | 0.00 | 0.00 | 0.00 | 80 | 1019.6 |
| 20260507175711 | 63 | 294 | 5.0 | 0.0 | 0.00 | 0.00 | 0.00 | 80 | 1019.6 |
| 20260507175214 | 63 | 223 | 5.0 | 0.0 | 0.00 | 0.00 | 0.00 | 79 | 1019.6 |
| 20260507174712 | 63 | 158 | 5.0 | 0.0 | 0.00 | 0.00 | 0.00 | 80 | 1019.6 |
| 20260507174212 | 62 | 274 | 7.0 | 0.0 | 0.00 | 0.00 | 0.00 | 80 | 1019.6 |
| 20260507173710 | 62 | 287 | 7.0 | 0.0 | 0.00 | 0.00 | 0.00 | 79 | 1019.6 |
| 20260507173213 | 63 | 269 | 8.0 | 0.0 | 0.00 | 0.00 | 0.00 | 79 | 1019.6 |
| 20260507172813 | 63 | 305 | 7.0 | 0.0 | 0.00 | 0.00 | 0.00 | 78 | 1019.6 |
| 20260507172224 | 63 | 92 | 7.0 | 0.0 | 0.00 | 0.00 | 0.00 | 79 | 1019.3 |
| 20260507171724 | 63 | 70 | 8.0 | 0.0 | 0.00 | 0.00 | 0.00 | 80 | 1019.3 |
| 20260507171225 | 63 | 349 | 6.0 | 0.0 | 0.00 | 0.00 | 0.00 | 79 | 1019.3 |
| 20260507170723 | 63 | 5 | 8.0 | 0.0 | 0.00 | 0.00 | 0.00 | 80 | 1019.3 |
| 20260507170224 | 62 | 279 | 8.0 | 0.0 | 0.00 | 0.00 | 0.00 | 81 | 1019.6 |
| 20260507165723 | 62 | 268 | 7.0 | 0.0 | 0.00 | 0.00 | 0.00 | 82 | 1019.6 |
| 20260507165324 | 61 | 291 | 11.0 | 0.0 | 0.00 | 0.00 | 0.00 | 82 | 1019.6 |
| 20260507164223 | 61 | 265 | 8.0 | 0.0 | 0.00 | 0.00 | 0.00 | 83 | 1019.6 |
| 20260507163724 | 61 | 244 | 10.0 | 0.0 | 0.00 | 0.00 | 0.00 | 83 | 1019.6 |
| 20260507163225 | 60 | 315 | 9.0 | 0.0 | 0.00 | 0.00 | 0.00 | 84 | 1019.6 |
| 20260507162725 | 60 | 283 | 9.0 | 0.0 | 0.00 | 0.00 | 0.00 | 84 | 1019.6 |
| 20260507162222 | 60 | 275 | 7.0 | 0.0 | 0.00 | 0.00 | 0.00 | 84 | 1019.6 |
| 20260507161724 | 60 | 304 | 9.0 | 0.0 | 0.00 | 0.00 | 0.00 | 85 | 1019.3 |
| 20260507161221 | 60 | 282 | 8.0 | 0.0 | 0.00 | 0.00 | 0.00 | 85 | 1019.3 |
| 20260507160720 | 60 | 355 | 7.0 | 0.0 | 0.00 | 0.00 | 0.00 | 85 | 1019.6 |
| 20260507160225 | 60 | 233 | 7.0 | 0.0 | 0.00 | 0.00 | 0.00 | 86 | 1019.6 |
| 20260507155722 | 60 | 321 | 9.0 | 0.0 | 0.00 | 0.00 | 0.00 | 85 | 1019.6 |
| 20260507155220 | 59 | 241 | 10.0 | 0.0 | 0.00 | 0.00 | 0.00 | 85 | 1019.6 |
| 20260507154722 | 59 | 284 | 10.0 | 0.0 | 0.00 | 0.00 | 0.00 | 86 | 1019.3 |
| 20260507154220 | 59 | 279 | 8.0 | 0.0 | 0.00 | 0.00 | 0.00 | 86 | 1019.3 |
| 20260507153721 | 59 | 287 | 9.0 | 0.0 | 0.00 | 0.00 | 0.00 | 86 | 1019.3 |
| 20260507153220 | 59 | 276 | 9.0 | 0.0 | 0.00 | 0.00 | 0.00 | 87 | 1019.3 |
| 20260507152719 | 59 | 258 | 8.0 | 0.0 | 0.00 | 0.00 | 0.00 | 87 | 1019.3 |
| 20260507152219 | 59 | 265 | 10.0 | 0.0 | 0.00 | 0.00 | 0.00 | 87 | 1019.3 |
| 20260507151723 | 59 | 309 | 11.0 | 0.0 | 0.00 | 0.00 | 0.00 | 87 | 1019.3 |
| 20260507151220 | 59 | 318 | 10.0 | 0.0 | 0.00 | 0.00 | 0.00 | 88 | 1019.0 |
| 20260507150719 | 59 | 265 | 10.0 | 0.0 | 0.00 | 0.00 | 0.00 | 88 | 1019.3 |
| 20260507150220 | 59 | 342 | 10.0 | 0.0 | 0.00 | 0.00 | 0.00 | 88 | 1019.3 |
| 20260507145720 | 59 | 215 | 9.0 | 0.0 | 0.00 | 0.00 | 0.00 | 88 | 1019.3 |
| 20260507145218 | 59 | 311 | 10.0 | 0.0 | 0.00 | 0.00 | 0.00 | 88 | 1019.3 |
| 20260507144719 | 59 | 303 | 9.0 | 0.0 | 0.00 | 0.00 | 0.00 | 88 | 1019.0 |
| 20260507144218 | 59 | 300 | 11.0 | 0.0 | 0.00 | 0.00 | 0.00 | 89 | 1019.3 |
| 20260507143718 | 59 | 291 | 11.0 | 0.0 | 0.00 | 0.00 | 0.00 | 89 | 1019.0 |
| 20260507143221 | 59 | 246 | 9.0 | 0.0 | 0.00 | 0.00 | 0.00 | 90 | 1018.6 |
| 20260507142721 | 59 | 304 | 9.0 | 0.0 | 0.00 | 0.00 | 0.00 | 91 | 1019.0 |
| 20260507142219 | 59 | 332 | 10.0 | 0.0 | 0.00 | 0.00 | 0.00 | 91 | 1019.0 |
| 20260507141720 | 59 | 296 | 8.0 | 0.0 | 0.00 | 0.00 | 0.00 | 91 | 1019.0 |
| 20260507141217 | 59 | 275 | 8.0 | 0.0 | 0.00 | 0.00 | 0.00 | 91 | 1019.3 |
| 20260507140717 | 59 | 328 | 9.0 | 0.0 | 0.00 | 0.00 | 0.00 | 91 | 1019.3 |
| 20260507140217 | 59 | 316 | 8.0 | 0.0 | 0.00 | 0.00 | 0.00 | 91 | 1019.0 |
| 20260507135718 | 59 | 327 | 10.0 | 0.0 | 0.00 | 0.00 | 0.00 | 91 | 1019.3 |
| 20260507135216 | 59 | 297 | 8.0 | 0.0 | 0.00 | 0.00 | 0.00 | 91 | 1019.0 |
| 20260507134716 | 59 | 301 | 9.0 | 0.0 | 0.00 | 0.00 | 0.00 | 91 | 1019.3 |
| 20260507134217 | 59 | 251 | 7.0 | 0.0 | 0.00 | 0.00 | 0.00 | 91 | 1019.0 |
| 20260507133718 | 59 | 251 | 8.0 | 0.0 | 0.00 | 0.00 | 0.00 | 90 | 1019.0 |
| 20260507133218 | 60 | 300 | 6.0 | 0.0 | 0.00 | 0.00 | 0.00 | 90 | 1019.0 |
| 20260507132718 | 60 | 311 | 7.0 | 0.0 | 0.00 | 0.00 | 0.00 | 89 | 1019.3 |
| 20260507132216 | 60 | 281 | 7.0 | 0.0 | 0.00 | 0.00 | 0.00 | 88 | 1019.3 |
| 20260507131715 | 60 | 317 | 6.0 | 0.0 | 0.00 | 0.00 | 0.00 | 88 | 1019.3 |
| 20260507131214 | 60 | 219 | 7.0 | 0.0 | 0.00 | 0.00 | 0.00 | 87 | 1019.0 |
| 20260507130715 | 60 | 304 | 8.0 | 0.0 | 0.00 | 0.00 | 0.00 | 87 | 1018.6 |
| 20260507130216 | 60 | 273 | 6.0 | 0.0 | 0.00 | 0.00 | 0.00 | 86 | 1019.0 |
| 20260507125716 | 60 | 290 | 9.0 | 0.0 | 0.00 | 0.00 | 0.00 | 86 | 1018.6 |
| 20260507125214 | 60 | 325 | 8.0 | 0.0 | 0.00 | 0.00 | 0.00 | 85 | 1019.0 |
| 20260507124713 | 61 | 297 | 8.0 | 0.0 | 0.00 | 0.00 | 0.00 | 85 | 1018.6 |
| 20260507124214 | 61 | 306 | 5.0 | 0.0 | 0.00 | 0.00 | 0.00 | 85 | 1018.6 |
| 20260507123716 | 61 | 282 | 9.0 | 0.0 | 0.00 | 0.00 | 0.00 | 85 | 1018.6 |
| 20260507123212 | 61 | 307 | 8.0 | 0.0 | 0.00 | 0.00 | 0.00 | 84 | 1018.6 |
| 20260507122712 | 61 | 312 | 6.0 | 0.0 | 0.00 | 0.00 | 0.00 | 84 | 1018.6 |
| 20260507122213 | 61 | 290 | 6.0 | 0.0 | 0.00 | 0.00 | 0.00 | 84 | 1018.3 |
| 20260507121715 | 61 | 258 | 10.0 | 0.0 | 0.00 | 0.00 | 0.00 | 84 | 1018.3 |
| 20260507121315 | 61 | 1 | 8.0 | 0.0 | 0.00 | 0.00 | 0.00 | 84 | 1017.9 |
| 20260507120213 | 61 | 258 | 10.0 | 0.0 | 0.00 | 0.00 | 0.00 | 83 | 1017.9 |
| 20260507115712 | 61 | 307 | 7.0 | 0.0 | 0.00 | 0.00 | 0.00 | 83 | 1017.9 |
| 20260507115212 | 61 | 312 | 10.0 | 0.0 | 0.00 | 0.00 | 0.00 | 83 | 1017.6 |
| 20260507114714 | 61 | 326 | 7.0 | 0.0 | 0.00 | 0.00 | 0.00 | 83 | 1017.6 |
| 20260507114214 | 61 | 303 | 10.0 | 0.0 | 0.00 | 0.00 | 0.00 | 83 | 1017.9 |
| 20260507113712 | 61 | 296 | 7.0 | 0.0 | 0.00 | 0.00 | 0.00 | 83 | 1017.6 |
| 20260507113211 | 61 | 257 | 8.0 | 0.0 | 0.00 | 0.00 | 0.00 | 83 | 1017.6 |
| 20260507112712 | 62 | 16 | 8.0 | 0.0 | 0.00 | 0.00 | 0.00 | 83 | 1017.6 |
| 20260507112214 | 62 | 246 | 8.0 | 0.0 | 0.00 | 0.00 | 0.00 | 83 | 1017.3 |
| 20260507111712 | 62 | 266 | 8.0 | 0.0 | 0.00 | 0.00 | 0.00 | 83 | 1017.3 |
| 20260507111210 | 62 | 324 | 8.0 | 0.0 | 0.00 | 0.00 | 0.00 | 83 | 1017.3 |
| 20260507110713 | 62 | 302 | 7.0 | 0.0 | 0.00 | 0.00 | 0.00 | 83 | 1017.3 |
| 20260507110211 | 62 | 243 | 8.0 | 0.0 | 0.00 | 0.00 | 0.00 | 83 | 1017.3 |
| 20260507105716 | 62 | 334 | 6.0 | 0.0 | 0.00 | 0.00 | 0.00 | 83 | 1016.9 |
| 20260507105213 | 62 | 269 | 9.0 | 0.0 | 0.00 | 0.00 | 0.00 | 83 | 1017.3 |
| 20260507104712 | 62 | 281 | 9.0 | 0.0 | 0.00 | 0.00 | 0.00 | 82 | 1016.9 |
| 20260507104211 | 62 | 315 | 7.0 | 0.0 | 0.00 | 0.00 | 0.00 | 83 | 1017.3 |
| 20260507103713 | 62 | 284 | 9.0 | 0.0 | 0.00 | 0.00 | 0.00 | 83 | 1017.3 |
| 20260507103213 | 62 | 246 | 6.0 | 0.0 | 0.00 | 0.00 | 0.00 | 83 | 1017.3 |
| 20260507102713 | 62 | 211 | 5.0 | 0.0 | 0.00 | 0.00 | 0.00 | 83 | 1017.3 |
| 20260507102312 | 62 | 271 | 7.0 | 0.0 | 0.00 | 0.00 | 0.00 | 83 | 1017.3 |
| 20260507101212 | 62 | 273 | 7.0 | 0.0 | 0.00 | 0.00 | 0.00 | 82 | 1016.9 |
| 20260507100711 | 62 | 327 | 7.0 | 0.0 | 0.00 | 0.00 | 0.00 | 82 | 1016.9 |
| 20260507100211 | 62 | 272 | 6.0 | 0.0 | 0.00 | 0.00 | 0.00 | 83 | 1017.3 |
| 20260507095711 | 62 | 282 | 6.0 | 0.0 | 0.00 | 0.00 | 0.00 | 83 | 1017.3 |
| 20260507095213 | 62 | 274 | 7.0 | 0.0 | 0.00 | 0.00 | 0.00 | 83 | 1016.9 |
| 20260507094710 | 62 | 297 | 6.0 | 0.0 | 0.00 | 0.00 | 0.00 | 82 | 1016.9 |
| 20260507094210 | 62 | 262 | 6.0 | 0.0 | 0.00 | 0.00 | 0.00 | 82 | 1016.9 |
| 20260507093712 | 62 | 252 | 7.0 | 0.0 | 0.00 | 0.00 | 0.00 | 83 | 1017.3 |
| 20260507093211 | 62 | 271 | 7.0 | 0.0 | 0.00 | 0.00 | 0.00 | 83 | 1016.9 |
| 20260507092710 | 62 | 276 | 5.0 | 0.0 | 0.00 | 0.00 | 0.00 | 83 | 1016.9 |
| 20260507092214 | 62 | 11 | 7.0 | 0.0 | 0.00 | 0.00 | 0.00 | 83 | 1016.9 |
| 20260507091712 | 62 | 312 | 5.0 | 0.0 | 0.00 | 0.00 | 0.00 | 83 | 1016.9 |
| 20260507091212 | 62 | 185 | 7.0 | 0.0 | 0.00 | 0.00 | 0.00 | 83 | 1016.9 |
| 20260507090712 | 62 | 251 | 8.0 | 0.0 | 0.00 | 0.00 | 0.00 | 83 | 1016.9 |
| 20260507090213 | 62 | 293 | 6.0 | 0.0 | 0.00 | 0.00 | 0.00 | 83 | 1016.9 |
| 20260507085714 | 62 | 238 | 5.0 | 0.0 | 0.00 | 0.00 | 0.00 | 83 | 1016.9 |
| 20260507085211 | 62 | 262 | 6.0 | 0.0 | 0.00 | 0.00 | 0.00 | 83 | 1016.9 |
| 20260507084714 | 62 | 292 | 8.0 | 0.0 | 0.00 | 0.00 | 0.00 | 83 | 1017.3 |
| 20260507084212 | 62 | 265 | 6.0 | 0.0 | 0.00 | 0.00 | 0.00 | 83 | 1017.3 |
| 20260507083711 | 62 | 277 | 5.0 | 0.0 | 0.00 | 0.00 | 0.00 | 83 | 1016.9 |
| 20260507083213 | 62 | 296 | 6.0 | 0.0 | 0.00 | 0.00 | 0.00 | 83 | 1016.9 |
| 20260507082712 | 62 | 329 | 7.0 | 0.0 | 0.00 | 0.00 | 0.00 | 83 | 1016.9 |
| 20260507082213 | 62 | 261 | 7.0 | 0.0 | 0.00 | 0.00 | 0.00 | 83 | 1017.3 |
| 20260507081711 | 63 | 322 | 6.0 | 0.0 | 0.00 | 0.00 | 0.00 | 83 | 1017.3 |